This demonstration page uses our WeatherBlox Daily Observations layout. Learn more.

Left ArrowRight Arrow

39.92423, -83.80882

Hourly Observations for March 6, 2019

Temp ( °F °C ) Dew Point ( °F °C ) Humidity (%) Winds ( mph kmh ) Pressure ( in mb ) Visibility ( mi km ) Precip ( " mm )
12:56 am 00:56 Cloudy with Light Snow 15 -9.4 11 -11.7 84 84 WSW 14 22 30.29 1026 9 14.48406 0 0.0254
1:23 am 01:23 Cloudy with Light Snow 16 -9 10 -12 79 79 WSW 15 24 30.33 1027 2.5 4.02335 0 0.0254
1:50 am 01:50 Cloudy with Light Snow 14 -10 12 -11 92 92 W 13 20 30.33 1027 2 3.21868 0 0.0254
1:56 am 01:56 Cloudy with Light Snow 14 -10 12 -11.1 92 92 W 13 20 30.3 1026 1.75 2.816345 0 0.0254
2:06 am 02:06 Cloudy with Light Snow 14 -10 12 -11 92 92 W 13 20 30.34 1027 1.5 2.41401 0 0.0254
2:20 am 02:20 Cloudy with Light Snow 14 -10 12 -11 92 92 W 12 19 30.34 1027 1 1.60934 0 0.0254
2:35 am 02:35 Cloudy with Light Snow 14 -10 12 -11 92 92 W 13 20 30.34 1027 2 3.21868 0 0.0254
2:42 am 02:42 Cloudy with Light Snow 14 -10 12 -11 92 92 W 14 22 30.34 1027 3 4.82802 0 0.0254
2:51 am 02:51 Mostly Cloudy with Light Snow 12 -11 9 -13 85 85 WNW 15 24 30.34 1028 9 14.48406 0 0.0254
2:56 am 02:56 Mostly Cloudy with Light Snow 13 -10.6 6 -14.4 74 74 WNW 16 26 30.3 1026 9 14.48406 0 0.0254
3:56 am 03:56 Clear 11 -11.7 4 -15.6 73 73 WNW 14 22 30.32 1027 10 16.0934 0 0.0254
4:56 am 04:56 Clear 10 -12.2 4 -15.6 76 76 W 13 20 30.33 1027 10 16.0934 0 0
5:56 am 05:56 Clear 9 -12.8 3 -16.1 77 77 W 9 15 30.35 1028 10 16.0934 0 0
6:56 am 06:56 Clear 7 -13.9 2 -16.7 80 80 W 10 17 30.37 1028 10 16.0934 0 0
7:56 am 07:56 Sunny 9 -12.8 4 -15.6 80 80 WSW 9 15 30.38 1029 10 16.0934 0 0
8:56 am 08:56 Sunny 12 -11.1 5 -15 73 73 W 15 24 30.4 1030 10 16.0934 0 0
9:56 am 09:56 Partly Cloudy 15 -9.4 6 -14.4 67 67 W 14 22 30.42 1030 10 16.0934 0 0.0254
10:04 am 10:04 Mostly Cloudy 16 -9 7 -14 67 67 W 13 20 30.46 1031 10 16.0934 0 0
10:39 am 10:39 Mostly Cloudy 16 -9 5 -15 62 62 W 13 20 30.46 1031 10 16.0934 0 0
10:56 am 10:56 Partly Cloudy 16 -8.9 6 -14.4 65 65 W 14 22 30.42 1030 10 16.0934 0 0
11:56 am 11:56 Mostly Cloudy 16 -8.9 8 -13.3 71 71 W 14 22 30.41 1030 10 16.0934 0 0
12:56 pm 12:56 Cloudy 18 -7.8 9 -12.8 68 68 SW 10 17 30.39 1029 10 16.0934 0 0
1:37 pm 13:37 Cloudy 19 -7 10 -12 68 68 W 14 22 30.4 1029 10 16.0934 0 0
1:56 pm 13:56 Mostly Cloudy 20 -6.7 10 -12.2 65 65 W 13 20 30.37 1029 10 16.0934 0 0
2:56 pm 14:56 Mostly Sunny 22 -5.6 12 -11.1 66 66 W 16 26 30.35 1028 10 16.0934 0 0
3:56 pm 15:56 Sunny 22 -5.6 12 -11.1 66 66 W 14 22 30.35 1028 10 16.0934 0 0
4:56 pm 16:56 Sunny 23 -5 12 -11.1 63 63 W 18 30 30.33 1027 10 16.0934 0 0
5:56 pm 17:56 Sunny 22 -5.6 12 -11.1 66 66 W 12 19 30.33 1027 10 16.0934 0 0
6:56 pm 18:56 Clear 22 -5.6 12 -11.1 66 66 WSW 13 20 30.32 1027 10 16.0934 0 0
7:56 pm 19:56 Clear 21 -6.1 12 -11.1 68 68 WSW 9 15 30.33 1027 10 16.0934 0 0
8:56 pm 20:56 Mostly Clear 20 -6.7 12 -11.1 71 71 WSW 7 11 30.33 1027 10 16.0934 0 0
9:56 pm 21:56 Clear 21 -6.1 13 -10.6 71 71 WSW 8 13 30.32 1027 10 16.0934 0 0
10:56 pm 22:56 Mostly Clear 21 -6.1 13 -10.6 71 71 WSW 8 13 30.32 1027 10 16.0934 0 0
11:56 pm 23:56 Cloudy 20 -6.7 13 -10.6 74 74 WSW 10 17 30.32 1027 10 16.0934 0 0

Powered by AerisWeather